Location: Melbourne
(37.8170°S, 144.9670°E)
Time: 03:21:48
(UTC+11:00)

Aureole 2 Rocket - Visible Passes

Search period start: 01 November 2014 00:00
Search period end: 11 November 2014 00:00
Orbit: 349 x 743 km, 73.9° (Epoch: 30 October)

Date Brightness Start Highest point End Pass type
(mag) Time Alt. Az. Time Alt. Az. Time Alt. Az.
07 Nov 6.5 05:08:46 10° ENE 05:10:23 11° E 05:12:00 10° ESE visible
08 Nov 6.3 05:01:41 10° ENE 05:04:05 13° E 05:06:29 10° ESE visible
09 Nov 6.1 04:54:49 10° NE 04:57:44 15° E 05:00:41 10° ESE visible
10 Nov 6.0 04:48:00 10° NE 04:51:20 18° E 04:54:42 10° SE visible
